GFSCGP_500_rhum_009.txt.gz
RH
4 4 4 6 6 5 4 4 3 4 5 5 4 4 4 4 3 4 4 4 3 2 3 3 4 4 4 4 5 5 6 7 6 7 7 9 9 9 8 6 11 15 18 21
4 4 6 6 6 6 5 5 5 6 6 5 4 3 3 4 3 3 3 3 3 3 3 4 4 4 4 5 5 6 6 7 7 7 7 9 9 10 8 7 14 18 20 23
5 4 4 4 4 4 5 5 6 5 5 5 4 2 3 3 3 3 3 4 4 4 4 4 4 4 4 5 5 7 8 7 7 7 7 9 10 10 8 9 16 21 24 26
4 5 5 6 6 6 6 6 6 5 5 4 5 2 2 3 3 4 4 5 5 5 5 5 5 5 5 5 6 7 8 8 8 7 8 9 10 10 7 13 22 24 27 29
9 10 10 7 6 5 4 6 7 7 7 7 6 7 3 4 5 6 6 6 5 6 5 5 5 5 5 5 5 6 8 9 9 8 9 11 11 8 10 20 25 28 30 29
9 10 8 9 11 12 12 12 10 7 5 4 3 6 5 5 5 5 5 4 4 5 5 5 5 5 5 6 7 9 9 9 9 11 11 12 10 8 19 26 29 30 30 32
13 12 12 13 12 16 19 21 19 15 14 9 9 10 5 4 3 3 3 5 6 4 4 4 4 6 8 8 11 12 11 11 13 13 12 11 8 17 28 30 31 32 34 33
6 5 10 13 16 19 17 23 22 27 20 16 20 11 5 8 7 6 8 11 6 5 5 5 6 6 8 12 16 18 14 15 15 13 10 9 17 27 33 33 33 36 38 38
5 4 5 7 10 15 17 19 34 50 29 40 16 11 9 9 10 13 12 12 14 9 10 9 8 10 12 15 22 16 14 15 12 10 11 19 27 33 36 35 36 41 42 40
6 5 4 4 6 11 20 24 33 48 54 46 21 20 12 11 14 19 19 17 20 19 13 12 14 16 18 19 15 13 13 12 11 15 23 30 30 36 38 37 41 45 47 38
7 6 4 5 6 7 18 30 52 93 100 80 55 17 14 17 24 26 28 29 28 32 24 22 19 16 17 15 12 13 17 20 20 26 30 31 32 37 39 40 46 50 48 36
7 8 6 6 8 9 14 30 52 92 77 99 91 28 25 33 44 42 38 37 37 45 49 32 29 26 27 23 20 20 24 21 23 29 32 33 32 39 43 43 49 54 48 37
6 7 8 6 7 11 19 43 64 99 100 96 100 56 35 36 36 41 35 47 53 53 67 75 69 62 67 71 40 34 35 34 33 32 37 38 40 44 44 45 54 55 46 39
7 6 7 8 8 12 13 67 100 100 100 97 97 96 74 63 40 30 33 34 41 44 67 60 61 72 74 85 67 56 54 54 54 39 42 42 44 42 43 50 56 56 45 43
6 5 7 7 7 7 8 11 71 100 100 100 85 100 76 71 74 42 43 41 40 44 48 70 70 64 73 83 82 78 70 65 65 45 44 47 45 46 48 55 58 58 47 50
6 7 8 7 7 9 9 8 8 8 29 83 99 98 100 98 86 67 56 58 44 44 56 63 61 74 81 78 80 83 70 78 63 49 48 49 52 53 55 58 64 59 54 59
13 14 16 14 15 16 16 12 11 9 8 9 15 61 82 95 97 97 93 93 61 35 36 53 62 65 75 87 95 80 71 71 59 53 54 58 58 58 58 63 69 61 62 60
34 28 25 34 73 82 96 73 68 48 42 64 29 51 66 75 55 91 100 100 87 62 64 55 57 78 67 61 96 82 64 59 53 56 62 64 63 61 62 73 73 64 66 62
38 42 60 75 76 58 48 93 99 92 80 69 100 100 100 100 61 58 77 93 79 70 61 65 73 92 96 68 58 85 80 62 51 64 68 63 62 60 70 79 75 70 70 67
53 77 77 62 66 85 44 69 74 65 48 70 88 100 100 86 84 58 58 67 94 70 60 55 75 94 98 94 89 69 75 65 60 69 69 62 61 69 82 84 79 76 79 74
59 46 51 61 86 50 41 79 85 100 99 100 100 80 99 100 93 56 55 53 48 74 57 50 61 66 90 100 97 87 77 70 68 63 57 60 68 78 82 88 85 89 78 80
58 73 74 85 87 44 68 74 100 100 94 82 96 100 100 86 60 59 94 64 45 48 53 51 42 54 79 100 97 98 88 80 78 62 60 66 68 78 88 93 94 95 83 83
58 90 99 100 99 99 67 100 74 86 66 45 42 64 98 96 46 35 33 75 73 63 55 73 71 71 92 95 97 94 98 96 90 75 72 69 80 88 92 97 96 94 87 86
55 94 92 92 48 100 68 67 73 97 85 66 49 48 71 87 87 36 12 83 86 74 69 77 79 86 100 89 97 97 93 94 93 85 77 82 86 90 96 94 96 96 92 94
68 100 100 59 63 57 64 83 63 50 49 43 37 34 46 66 42 10 7 58 100 100 93 79 98 99 82 93 96 98 97 92 87 84 83 89 92 95 96 97 97 95 93 95
100 100 99 60 73 65 45 55 36 31 29 29 30 35 42 40 24 12 8 54 100 100 100 99 98 100 97 79 92 100 98 89 91 97 97 96 96 96 97 99 97 94 92 90

GFSCGP_500_rhum_015.txt.gz
RH
5 5 6 5 5 5 4 4 4 5 5 3 3 2 2 3 2 3 3 4 4 4 5 5 5 4 4 4 4 4 4 4 4 4 4 5 6 6 6 6 7 8 8 7
5 5 5 5 5 5 5 5 5 5 5 4 4 2 3 3 4 4 4 5 5 5 5 5 5 5 4 4 4 4 4 4 4 4 5 5 5 5 6 6 8 9 9 8
9 10 9 9 8 8 8 8 8 8 8 7 6 5 5 5 5 6 5 5 5 5 5 5 5 5 4 4 4 4 4 4 4 4 4 5 5 5 6 6 7 9 9 7
11 13 12 12 14 13 11 14 12 12 11 8 8 5 4 6 7 8 8 8 7 8 8 8 8 6 6 5 5 5 5 5 5 5 5 5 6 5 6 8 10 10 8 7
7 6 6 7 7 6 5 5 5 5 4 4 4 6 3 3 3 5 7 8 10 12 12 9 6 6 8 8 7 7 6 6 6 6 6 6 6 6 7 10 11 10 8 10
7 7 7 7 7 7 7 6 6 5 5 4 4 5 3 3 3 3 4 5 7 13 14 14 12 9 6 6 5 5 5 6 6 6 6 7 7 7 9 12 12 10 10 14
7 8 7 8 8 8 8 7 6 6 5 4 5 4 3 3 3 3 3 3 6 11 15 18 17 15 12 8 5 5 5 4 7 7 7 7 8 9 10 11 11 12 14 16
9 8 8 8 8 8 8 7 6 6 5 4 4 4 3 3 3 3 3 3 4 5 6 8 19 21 18 14 12 9 6 5 6 8 9 9 9 10 11 11 14 17 17 16
10 9 8 9 10 9 7 6 6 6 5 6 4 4 4 3 3 3 3 3 4 5 9 12 29 25 24 25 22 18 10 7 7 9 10 11 12 13 16 18 19 17 18 16
12 10 11 12 11 9 6 6 6 7 6 5 4 4 4 4 3 3 3 3 4 6 22 39 47 47 38 30 28 19 13 8 7 11 13 14 17 19 17 19 21 19 16 16
15 14 13 13 8 7 6 6 7 6 7 19 7 4 4 4 4 4 4 4 4 4 6 22 31 43 44 41 41 32 19 11 8 11 18 26 25 24 24 24 21 17 16 24
18 15 11 9 8 8 7 7 7 7 7 7 80 46 4 7 19 34 26 33 14 18 30 62 80 62 56 58 48 39 28 19 12 17 21 28 34 29 25 23 17 18 24 31
15 12 11 9 8 7 7 7 5 6 10 10 15 12 9 7 37 100 79 70 72 91 100 100 89 86 70 64 56 47 54 32 30 28 31 34 34 32 30 27 22 25 32 34
16 13 10 10 9 9 7 5 4 7 14 26 32 34 21 45 13 7 61 100 100 100 98 96 77 76 74 77 69 69 81 52 40 58 44 38 36 48 46 38 30 31 37 41
14 13 10 9 6 5 5 4 9 30 39 59 68 90 87 88 95 70 26 13 21 67 97 99 78 89 52 87 100 92 100 89 56 56 62 47 50 56 58 44 42 35 40 52
12 10 9 7 5 5 5 12 34 68 82 76 70 88 98 93 84 92 100 97 54 14 10 26 99 100 99 59 95 98 99 98 91 56 68 67 67 67 57 47 60 46 52 60
10 8 6 6 5 6 12 37 58 68 59 58 54 54 61 75 75 73 78 95 94 100 75 44 29 56 100 92 85 95 99 97 97 96 74 91 92 57 57 50 61 66 65 65
8 6 5 5 7 15 44 43 82 70 38 50 59 74 64 84 64 63 98 97 96 86 92 100 83 22 30 100 95 97 99 98 98 98 99 94 99 82 66 66 64 76 67 67
6 5 6 12 18 34 22 62 71 56 27 78 65 60 59 79 72 43 73 96 94 87 77 93 100 94 71 82 96 99 100 99 98 97 97 98 98 95 84 81 82 83 70 72
6 6 12 26 58 50 35 72 76 50 29 42 53 60 73 65 63 37 43 61 73 86 86 74 71 100 95 95 62 97 99 98 100 98 98 98 99 97 95 87 87 86 70 68
6 9 17 50 69 42 53 80 48 44 40 36 47 62 70 80 84 56 59 46 46 46 59 67 78 80 68 73 96 67 96 99 100 96 97 95 97 98 94 92 88 81 80 72
10 13 35 58 74 48 71 72 60 69 38 49 36 54 75 80 66 50 37 31 46 41 37 38 70 77 67 45 86 86 98 100 99 100 97 85 96 97 98 99 100 98 89 76
11 15 44 99 96 100 84 74 77 86 79 61 47 46 62 81 80 65 45 35 29 31 30 26 54 80 52 31 45 67 85 99 99 96 89 98 82 95 100 100 100 99 98 84
13 28 64 84 68 99 67 72 93 93 94 76 52 50 66 69 62 50 38 26 21 21 24 22 46 58 27 34 42 66 74 84 98 98 97 96 88 100 100 98 97 97 97 81
19 39 52 46 70 78 96 100 100 89 75 52 49 46 59 77 83 95 94 74 62 45 21 18 24 49 22 94 78 66 78 90 94 98 94 91 98 98 96 98 98 97 94 87
26 24 49 55 90 97 88 99 100 94 67 54 51 41 64 66 56 60 62 59 66 77 48 21 17 25 40 97 95 62 46 79 96 99 98 89 99 100 76 83 92 86 95 94

GFSCGP_500_rhum_021.txt.gz
RH
5 5 5 5 5 5 5 6 6 8 9 7 8 7 9 10 10 9 9 9 9 9 9 7 6 5 5 5 5 4 5 5 5 5 5 5 5 5 5 4 4 4 4 5
7 8 11 12 12 12 11 10 10 9 9 8 7 6 6 5 5 5 5 5 6 6 7 8 8 8 10 11 9 6 6 6 6 6 5 5 5 5 5 4 4 4 4 5
12 11 11 10 9 7 6 6 6 5 5 5 5 4 5 6 6 5 4 5 4 5 5 4 4 4 4 4 7 11 10 8 7 5 6 6 5 5 5 5 5 5 4 4
8 8 7 7 6 6 7 7 8 8 7 7 7 6 6 8 7 5 5 6 6 5 4 5 4 4 4 4 4 4 7 14 14 9 8 7 5 5 5 5 5 5 5 5
8 8 8 9 9 9 10 11 11 10 10 8 9 9 11 11 10 7 7 6 6 6 6 6 6 6 6 5 5 4 4 3 5 12 13 10 8 9 9 8 6 6 6 6
10 9 10 10 11 11 12 12 12 12 12 10 12 10 10 28 12 9 8 8 8 8 8 8 8 8 8 7 7 6 5 4 3 3 4 11 13 10 7 8 8 8 8 7
12 12 13 14 14 14 14 14 13 14 15 16 16 13 13 24 13 12 11 10 9 9 9 9 8 8 6 6 6 6 6 5 4 3 3 3 12 14 10 7 6 7 7 7
16 15 14 13 16 17 18 18 18 18 19 17 16 15 15 23 14 11 11 10 10 9 9 8 7 6 5 6 6 7 6 5 4 3 3 4 3 11 19 12 8 6 6 6
16 15 16 14 19 20 21 21 21 20 18 17 16 16 14 16 12 11 10 9 8 7 6 6 5 5 4 3 3 4 6 5 4 4 3 3 3 7 20 20 13 8 8 6
18 18 24 25 25 25 25 24 21 19 20 20 18 15 13 11 10 8 7 9 8 7 5 5 4 4 3 3 4 18 23 21 19 12 6 3 4 5 21 24 17 12 10 7
21 22 26 23 24 24 25 25 24 20 17 16 14 10 11 10 9 7 6 4 4 4 4 4 3 3 3 3 3 36 97 88 79 70 33 22 10 12 25 30 22 16 12 10
20 26 24 24 25 24 20 17 15 14 14 12 11 8 7 7 7 6 5 5 7 7 11 13 20 31 20 19 7 42 91 100 100 100 100 99 78 65 50 41 29 22 18 14
18 18 18 18 16 14 15 16 14 14 12 10 11 8 8 6 6 5 5 14 25 18 18 42 60 97 82 68 56 36 61 99 99 100 100 99 91 81 62 44 35 24 19 18
18 18 18 17 17 16 14 14 13 14 12 10 10 9 7 7 7 7 12 16 26 24 27 34 42 68 72 60 74 82 60 33 78 98 100 100 100 88 75 77 55 42 31 25
20 21 20 20 16 15 14 12 13 12 10 9 8 8 8 10 64 18 23 16 17 23 23 28 46 51 61 53 94 94 98 66 23 91 100 99 100 86 84 88 71 60 47 41
24 23 26 24 16 15 14 14 13 12 12 10 9 7 14 13 20 25 19 19 28 26 29 36 40 39 41 43 54 83 97 100 91 49 100 100 100 100 91 98 84 70 60 52
31 33 31 28 25 23 20 17 16 13 10 8 10 11 22 22 23 32 28 30 35 43 40 38 61 59 46 34 46 59 89 100 100 98 100 100 99 99 96 98 93 84 64 61
35 35 32 30 28 24 21 18 15 12 9 12 15 24 46 41 38 33 50 54 56 64 48 29 43 55 44 53 62 58 79 99 100 100 99 97 99 98 100 99 99 98 80 76
36 34 33 32 30 27 23 18 12 9 8 18 35 74 67 64 71 46 67 81 85 55 30 37 47 57 53 35 45 57 52 96 100 100 100 98 96 98 100 98 99 94 97 82
37 37 36 36 34 30 22 13 10 8 8 54 82 85 100 84 74 64 81 82 67 47 41 59 66 70 39 43 38 40 42 68 96 100 90 98 92 96 100 100 98 99 96 89
43 43 41 35 31 23 14 11 8 12 40 52 60 79 92 100 100 99 99 90 69 48 50 50 58 88 96 45 30 33 37 42 62 95 91 77 98 92 90 99 99 98 97 97
39 33 35 34 25 15 12 9 18 20 26 53 68 96 100 92 79 80 86 94 74 53 52 47 53 52 51 55 50 25 31 34 39 62 61 56 91 99 90 100 99 97 99 97
37 29 32 35 24 15 10 14 20 30 84 59 73 66 67 73 79 82 87 83 72 76 62 49 53 49 37 32 44 31 24 28 33 48 55 42 53 85 88 99 99 99 99 99
33 32 38 37 18 11 15 26 41 48 50 47 45 51 60 74 96 90 87 83 81 77 72 48 64 57 37 30 40 42 27 24 30 44 47 35 33 54 80 72 75 99 98 93
32 28 35 34 19 15 18 36 54 60 74 81 79 76 77 77 90 100 79 66 67 55 64 70 60 51 39 30 37 48 29 20 34 54 33 26 33 48 45 61 89 99 96 100
30 24 30 32 15 7 12 30 47 51 59 83 97 97 100 100 100 89 69 57 68 64 48 39 52 61 41 30 38 44 24 25 35 52 25 34 54 54 64 89 92 98 98 99

GFSCGP_500_rhum_024.txt.gz
RH
5 5 5 6 8 9 9 9 9 11 10 8 7 7 6 6 6 6 6 7 8 8 7 6 7 8 8 10 10 10 11 12 10 8 6 6 6 5 5 5 5 5 5 5
9 10 12 10 9 8 7 6 6 6 6 6 6 6 7 7 7 6 6 6 6 6 6 6 6 6 6 5 5 4 4 5 8 10 11 10 7 6 6 6 6 6 5 5
10 8 8 7 7 6 6 6 7 7 8 9 8 9 10 9 7 6 6 7 8 9 9 8 7 7 6 6 7 7 7 7 5 5 5 8 15 13 10 7 6 6 6 6
9 9 9 8 8 8 9 9 9 10 10 10 13 11 14 13 10 8 8 10 10 10 10 10 10 10 10 10 10 9 9 9 8 8 7 5 4 4 10 14 10 8 6 5
10 9 9 10 11 11 12 12 12 14 14 13 16 14 20 19 13 13 14 12 11 11 12 12 12 11 10 10 9 8 8 8 8 7 7 7 7 6 4 3 6 14 10 9
12 11 12 13 14 14 14 14 15 16 16 16 18 17 32 28 17 13 13 15 14 13 12 11 10 8 7 6 6 5 5 6 8 8 7 8 6 6 6 6 4 3 13 12
8 8 8 11 13 14 14 15 15 16 19 21 22 23 34 22 20 18 16 14 11 11 10 9 8 7 6 6 5 5 5 5 5 6 7 15 14 4 5 6 5 4 3 14
11 12 12 12 17 19 21 24 25 24 24 22 23 22 26 22 18 15 14 13 12 11 9 7 7 6 6 5 5 5 5 4 6 10 5 10 18 13 9 4 4 5 3 3
12 13 14 14 19 21 22 22 24 20 22 19 15 15 20 17 14 14 14 17 20 15 12 8 7 6 6 5 4 4 4 4 3 3 4 7 8 11 14 6 4 3 4 3
11 10 16 17 18 19 20 20 20 18 17 16 16 15 15 16 17 20 22 25 18 14 10 8 8 7 6 5 4 4 4 4 3 3 4 3 17 15 21 14 5 3 4 3
14 13 15 14 14 14 16 17 17 17 17 17 16 11 13 15 13 13 12 11 10 10 8 7 6 6 4 4 4 3 4 7 10 8 5 8 16 23 35 16 8 4 4 4
16 15 16 17 19 18 18 19 21 22 19 17 17 12 15 15 14 14 13 12 10 8 7 6 6 6 11 10 9 12 34 74 63 45 46 17 99 74 47 30 11 6 6 4
15 16 15 17 16 16 15 18 24 27 24 21 24 21 20 18 16 16 12 9 8 7 6 7 12 16 13 12 13 23 36 57 74 56 64 47 38 100 100 100 100 36 31 36
19 21 20 22 28 26 25 28 32 32 30 28 24 22 21 20 16 10 8 8 8 8 14 21 20 22 21 17 32 38 39 54 56 66 93 84 63 61 99 100 100 100 100 100
25 24 22 23 28 25 24 28 29 28 28 28 24 24 20 14 10 9 10 12 19 22 30 29 29 33 30 26 27 43 56 41 46 48 62 97 82 66 81 100 99 100 98 100
29 26 23 24 25 22 21 22 26 25 25 23 23 18 13 11 11 10 26 43 42 52 52 49 48 40 47 35 24 27 52 52 46 48 69 94 90 100 83 93 100 100 98 99
35 30 26 24 23 22 24 22 23 23 24 21 16 14 12 11 9 9 66 65 75 70 76 69 53 52 52 32 44 40 47 44 46 53 63 82 98 100 96 51 99 100 100 99
35 32 29 26 26 25 25 25 23 23 22 16 14 13 11 10 11 18 47 78 85 79 95 88 83 58 42 40 49 64 51 51 40 37 54 68 96 98 100 72 94 100 100 98
36 33 32 34 31 28 26 23 24 24 18 16 16 12 11 18 27 24 63 81 93 100 97 100 92 64 46 48 46 63 93 69 37 41 40 55 95 99 100 98 95 100 100 99
38 37 34 27 28 23 23 21 25 22 15 18 14 13 32 46 58 54 62 67 89 84 76 73 75 76 62 62 55 53 45 45 58 26 35 44 80 96 100 100 98 100 100 97
43 35 28 19 26 23 20 23 24 18 18 16 12 27 46 65 75 73 65 54 56 81 72 76 86 96 87 67 53 53 49 33 38 33 30 36 56 100 73 100 92 100 91 100
43 36 21 14 18 28 31 31 23 21 18 13 18 36 45 55 69 88 97 90 69 55 51 65 97 83 80 76 56 55 52 33 31 32 27 31 42 80 72 100 96 89 100 97
52 34 16 15 22 23 32 40 30 16 12 11 19 30 42 53 59 68 72 84 96 89 68 57 67 75 70 67 67 63 60 46 30 32 21 28 34 53 58 95 95 96 100 99
44 29 19 14 24 26 45 37 40 17 12 19 27 34 49 48 49 31 29 20 18 20 49 80 67 58 58 54 66 69 62 42 31 35 20 24 32 42 51 92 98 96 100 100
42 22 17 16 19 10 33 49 34 23 11 17 29 41 37 40 16 20 16 22 26 20 17 19 28 54 47 46 46 40 38 40 30 42 26 25 29 30 40 62 100 89 100 100
21 23 20 15 14 21 45 51 24 12 14 29 30 14 10 17 18 32 53 73 83 79 70 31 20 25 40 38 32 26 32 28 35 37 25 23 29 32 33 56 100 87 99 100

GFSCGP_500_rhum_030.txt.gz
RH
5 5 6 9 9 8 8 8 7 7 8 8 8 7 8 8 8 8 8 8 9 10 10 11 11 11 12 13 12 12 10 8 8 6 6 6 6 6 6 5 5 10 12 8
10 11 10 9 8 8 9 8 8 8 9 8 9 9 8 9 10 10 10 10 10 12 14 16 16 16 16 16 16 16 16 15 14 12 11 10 10 9 9 8 8 9 7 10
10 10 10 9 9 9 10 9 10 10 11 11 12 10 10 10 11 12 14 16 16 17 17 18 18 18 18 18 20 19 17 16 15 15 14 12 10 10 10 9 10 9 9 9
10 10 10 11 10 9 9 10 11 10 9 10 9 8 6 6 8 9 10 11 10 11 12 13 13 14 14 15 16 18 19 25 20 19 26 23 12 9 8 8 7 7 7 7
10 10 10 10 9 8 8 9 8 9 9 8 10 9 6 6 8 10 11 12 13 13 14 14 15 16 16 16 16 18 23 30 53 49 26 32 30 17 12 9 8 7 7 6
8 7 9 8 8 7 8 9 9 9 9 9 10 8 6 9 11 11 12 13 14 15 15 17 19 20 19 19 22 26 26 27 22 32 44 53 53 43 18 12 10 9 8 7
9 8 8 9 9 8 9 9 10 9 10 9 11 9 11 12 13 14 14 14 13 12 14 18 22 24 25 24 25 28 42 30 30 27 24 42 67 76 48 21 13 10 8 7
10 10 10 10 10 11 11 12 12 12 11 10 16 15 15 16 18 18 19 18 16 16 18 19 20 21 24 25 25 23 21 18 16 14 13 16 20 17 18 16 11 9 7 6
12 12 13 12 12 13 13 13 13 13 13 13 13 14 15 17 18 18 18 18 19 19 19 19 19 20 20 18 17 16 16 15 13 12 11 10 9 8 8 7 6 6 6 5
14 13 13 13 13 15 17 18 19 20 19 18 16 16 18 19 18 20 21 21 21 21 22 22 21 20 18 16 15 15 14 14 13 12 11 9 7 6 5 5 5 4 4 4
14 14 14 14 16 18 20 20 19 20 23 22 18 16 21 22 22 22 21 20 22 21 19 18 16 16 16 15 14 13 12 12 9 7 7 9 10 14 14 10 6 4 4 4
13 16 16 18 18 20 24 22 22 22 24 24 24 15 22 20 20 20 18 17 16 15 14 13 11 12 16 16 14 11 9 6 7 10 18 27 30 28 23 19 15 9 9 8
15 15 17 18 21 22 23 21 22 25 26 25 26 23 22 22 21 18 17 16 15 12 9 9 15 19 16 10 10 9 8 12 20 37 42 47 39 33 23 23 17 13 20 42
17 18 21 25 24 23 26 27 31 32 29 26 26 22 25 22 19 18 17 16 11 9 12 18 19 15 10 11 17 30 27 36 43 55 57 56 54 39 28 20 22 36 31 51
21 22 25 29 28 28 27 28 31 30 32 28 26 28 23 19 19 18 19 12 11 20 24 19 14 11 11 17 18 31 38 52 50 56 66 74 75 51 27 24 30 47 46 45
24 25 25 29 31 30 28 30 30 30 30 34 30 24 20 20 21 22 12 17 21 22 22 16 11 11 17 20 24 17 25 42 60 56 52 61 65 44 31 37 42 44 42 48
30 30 28 28 30 30 31 32 31 30 34 35 28 25 23 25 27 13 14 18 21 23 17 12 13 16 13 10 15 20 25 28 50 77 52 63 58 50 36 42 47 41 44 45
37 34 34 33 34 32 39 35 33 31 34 36 31 28 28 28 22 14 28 26 25 18 12 10 10 9 8 9 14 22 24 22 48 75 71 69 79 61 44 44 36 34 31 37
41 42 43 44 39 33 42 40 39 36 36 36 34 32 27 20 18 18 28 30 23 12 12 12 27 39 42 51 44 29 23 20 17 30 71 66 76 74 54 49 46 32 28 32
48 47 49 55 47 38 47 48 45 43 38 35 34 25 26 19 16 18 19 30 16 11 14 25 39 53 63 78 93 99 99 93 82 31 47 60 72 84 59 56 45 40 29 34
54 50 51 61 53 40 55 58 52 48 45 44 24 23 24 16 21 26 34 18 12 20 36 53 63 67 70 74 92 92 94 97 100 99 27 48 57 78 63 40 36 38 25 44
59 58 60 63 57 53 63 62 66 61 51 29 24 25 16 18 18 31 25 15 23 45 60 61 38 26 44 79 100 99 82 98 100 100 57 22 46 78 63 42 36 32 32 38
62 64 75 71 57 82 78 69 68 55 41 28 32 14 17 17 27 33 14 13 35 63 46 37 34 33 33 51 85 76 100 98 96 94 43 20 41 61 46 37 32 23 26 79
73 89 93 67 69 91 81 78 69 60 37 42 30 15 16 22 40 21 13 33 59 34 41 37 36 41 51 52 44 99 91 84 82 43 19 25 38 45 36 27 26 20 32 98
86 92 96 66 83 73 75 73 70 49 46 56 26 15 16 31 34 14 26 58 29 30 39 41 49 95 100 96 82 63 40 22 17 17 21 23 25 30 26 25 20 23 96 100
88 99 82 74 79 69 74 72 58 47 55 61 18 15 19 41 22 17 54 38 27 33 39 39 37 49 49 46 35 26 22 19 16 16 17 18 21 22 22 22 20 90 98 100

GFSCGP_500_rhum_033.txt.gz
RH
6 5 5 6 9 10 8 8 8 8 8 8 7 8 8 9 9 10 11 11 12 13 13 13 14 14 16 16 17 17 16 15 15 15 13 9 11 8 9 10 9 9 8 11
6 9 12 10 9 9 8 8 9 9 8 7 6 6 7 8 11 12 12 12 14 15 14 13 15 16 18 19 20 19 19 18 18 18 17 17 14 10 13 13 13 12 11 10
12 10 10 10 9 9 8 7 7 7 8 7 7 6 7 10 11 10 11 10 10 11 12 12 12 13 14 14 14 14 15 15 15 17 19 18 18 17 16 15 16 15 12 11
11 11 11 10 8 7 7 7 7 7 7 7 7 6 7 8 9 10 10 11 12 11 12 13 14 14 15 17 18 18 17 16 15 15 17 21 20 20 28 17 17 21 19 16
11 12 11 8 8 7 8 8 7 8 8 8 10 8 7 9 9 9 10 10 10 10 11 11 12 13 14 16 18 21 23 24 24 22 20 18 19 22 18 19 20 18 23 21
10 9 9 8 8 9 9 10 10 11 11 10 10 9 8 9 9 10 10 10 11 11 12 12 13 14 15 17 19 19 21 24 27 30 29 27 26 26 29 27 19 16 17 27
9 9 10 10 11 12 13 13 12 11 12 11 10 8 9 10 11 13 13 13 14 14 14 14 13 13 14 16 16 16 16 18 18 19 21 23 24 25 30 45 42 23 19 17
11 12 12 14 14 15 15 14 14 12 10 10 13 11 11 14 15 15 15 15 16 15 14 14 14 14 15 16 16 15 14 13 12 13 14 16 16 16 16 21 30 28 22 21
14 14 15 16 17 15 13 15 13 13 13 12 11 12 13 17 16 14 13 13 15 16 15 16 16 17 18 17 15 13 10 8 7 7 7 12 16 16 15 14 14 14 14 15
15 15 17 16 15 14 14 14 16 16 15 14 13 13 15 14 14 15 16 17 19 20 19 18 18 18 17 14 12 10 9 9 12 15 15 14 15 14 12 10 9 8 8 10
17 17 16 13 14 13 13 16 18 18 20 18 16 15 19 19 18 17 19 21 22 20 20 20 22 23 16 14 11 9 9 11 16 17 16 14 11 6 4 4 5 6 6 5
15 15 13 13 13 13 16 20 21 21 20 21 21 16 24 22 20 23 24 23 22 21 22 29 28 25 18 12 11 11 15 20 19 15 10 6 4 8 11 9 7 20 30 28
14 12 12 12 14 17 20 22 23 23 24 24 23 25 26 26 24 26 27 25 25 27 30 31 29 20 14 13 16 21 22 19 11 10 9 6 8 15 20 19 14 26 45 42
14 14 14 14 14 19 24 26 26 25 26 26 27 24 34 31 30 29 28 28 30 31 34 32 23 17 12 15 26 24 17 10 9 7 7 10 14 18 21 26 32 46 56 46
17 15 16 19 20 23 27 32 34 31 35 31 30 30 33 31 31 30 30 30 32 37 36 24 19 13 15 28 22 12 11 11 15 9 7 8 16 20 24 35 34 70 61 46
18 16 17 21 24 29 32 39 36 33 34 35 36 32 37 36 33 32 35 33 38 34 27 21 14 19 28 19 10 12 15 26 42 52 58 38 17 21 26 40 33 50 55 51
18 18 17 18 25 33 36 37 40 37 38 39 39 40 38 37 38 38 36 38 37 28 22 14 19 27 14 10 22 29 36 50 64 71 78 83 44 28 31 45 39 55 72 52
20 22 24 25 34 38 41 45 43 42 40 44 41 45 47 43 38 40 33 39 32 21 15 20 27 16 10 32 42 44 38 36 53 68 76 85 99 81 40 43 48 54 75 51
30 37 43 45 50 44 48 50 48 48 37 50 49 54 50 48 43 41 45 39 21 15 20 27 13 26 39 27 23 23 26 34 37 44 96 93 92 99 99 49 46 46 77 54
47 58 62 62 67 55 58 56 59 58 44 50 52 59 54 52 47 46 50 32 16 14 29 15 28 25 20 28 36 36 38 36 35 37 80 96 90 95 100 75 47 44 73 56
78 79 73 76 77 63 70 68 72 60 52 56 58 55 54 56 52 56 49 17 14 27 18 22 21 18 28 32 33 68 91 94 56 41 52 85 100 100 100 80 43 41 58 40
99 100 84 81 86 90 76 80 77 68 65 64 64 63 63 57 59 60 21 14 20 25 17 24 26 42 31 25 23 36 56 61 79 87 91 99 100 100 99 31 29 41 46 33
99 100 87 85 87 100 89 81 70 68 67 68 64 66 67 63 65 40 16 13 23 17 27 27 60 60 59 73 41 20 24 27 25 22 23 42 84 94 44 16 24 42 35 30
100 100 88 100 84 91 74 68 73 69 62 62 64 69 72 68 62 26 13 16 28 18 29 52 62 61 58 72 82 79 43 23 23 19 15 15 16 19 18 21 26 37 25 26
94 91 99 89 72 58 58 70 74 68 62 62 68 74 75 73 50 17 13 24 22 26 35 60 71 85 79 80 94 99 98 98 43 25 17 15 20 22 29 23 34 26 23 25
100 91 100 68 57 60 80 78 64 52 52 56 67 80 81 62 32 14 17 31 17 35 44 62 80 89 80 89 92 94 100 98 100 75 26 18 19 23 20 22 23 22 23 62